Погода в Туксе

Россия / Республика Карелия     61°00′31″N   32°50′47″E
темп.,
°C
ветер,
м/с
пор.,
м/с
влажн.,
%
обл.,
%
осадки,
мм/ч
давл.,
гПа
погр.,
м
7 мая, пт
пт700:00+2юз71298100 0.1 993712
03:00+2зюз61195100 0.1 995778
06:00+2зюз51091100 0.0 997650
09:00+2зюз4698100 0.4 999311
12:00+2юз3499100 1.1 1001192
15:00+3юз3898100 1.7 1003403
18:00+3юз4998100 0.6 1004396
21:00+3юз259884 0.8 1005155
8 мая, сб
сб800:00+3ююв229739 0.0 100631
03:00+3вюв3596100 0.0 100584
06:00+3в3495100 0.0 100487
09:00+4всв2394100 1.3 1003146
12:00+4ссв3597100 5.3 1002268
15:00+4ссз3697100 7.8 1001289
18:00+4сз4799100 0.9 1002509
21:00+3сз51198100 1.6 1004578
9 мая, вс
вс900:00+3зсз489398 0.0 1005432
03:00+3сз71293100 1.3 1003725
06:00+2зсз49895 0.0 1009276
09:00+4з45825 0.0 1011394
12:00+5зюз58770 0.0 1014485
15:00+6зюз4866100 0.0 1015849
18:00+6ююз246384 0.0 1016302
21:00+5юз5127838 0.0 1017281
10 мая, пн
пн1000:00+5юз51280100 0.1 1017251
03:00+4ююз379098 0.2 1019128
06:00+5ююз4886100 0.1 1019522
09:00+5ю61295100 0.9 1019428
12:00+6ююз51295100 0.5 1019369
15:00+10ююз5128678 0.9 1020339
18:00+10юз51283100 0.0 1020210
21:00+10ююз61581100 0.0 1019260
11 мая, вт
вт1100:00+9ююз71786100 0.0 1021300
03:00+8ююз7168825 0.0 1022284
06:00+8ююз6149086 0.0 1022287
09:00+9ююз6148340 0.0 1023326
12:00+12ююз7147087 0.0 1023485
15:00+13ююз61365100 0.0 1023597
18:00+13ююз51267100 0.0 1023333
21:00+11ююз51376100 0.0 1023189